JAL2087 RJOO-ROAH

Flight info

Callsign JAL2087
Flight time 1h 43m
Altitude 38000
Route TIGER MAIKO Y75 ONC Y525 IHEYA
Aircraft A339/H-SADE1E2E3GHIJ3J5M1P2RWXY/LB2D1

Departure

Time 2026-04-28 17:10
Airport Osaka Itami International Airport (RJOO)

Arrival

Time 2026-04-28 18:54
Airport Naha International Airport (ROAH)
Time Latitude Longitude Altitude Speed Heading
2026-04-28 16:47 34.79025 135.44029 54 ft 0 kts 23°
2026-04-28 16:59 34.79018 135.44026 54 ft 4 kts 22°
2026-04-28 17:00 34.78993 135.44014 54 ft 4 kts 20°
2026-04-28 17:00 34.78968 135.44002 49 ft 4 kts 32°
2026-04-28 17:00 34.78951 135.43988 54 ft 4 kts 39°
2026-04-28 17:00 34.78930 135.43967 54 ft 4 kts 40°
2026-04-28 17:01 34.78910 135.43947 54 ft 3 kts 47°
2026-04-28 17:01 34.78906 135.43941 54 ft 0 kts 47°
2026-04-28 17:04 34.78907 135.43942 54 ft 1 kts 47°
2026-04-28 17:04 34.78902 135.43961 54 ft 3 kts 105°
2026-04-28 17:05 34.78809 135.44054 47 ft 15 kts 148°
2026-04-28 17:05 34.78686 135.44099 48 ft 21 kts 158°
2026-04-28 17:05 34.78557 135.44226 49 ft 26 kts 134°
2026-04-28 17:06 34.78237 135.44342 47 ft 14 kts 178°
2026-04-28 17:06 34.78129 135.44398 48 ft 20 kts 140°
2026-04-28 17:06 34.77896 135.44659 49 ft 5 kts 133°
2026-04-28 17:07 34.77855 135.44712 49 ft 12 kts 133°
2026-04-28 17:07 34.77782 135.44806 52 ft 19 kts 133°
2026-04-28 17:07 34.77678 135.44939 52 ft 24 kts 134°
2026-04-28 17:07 34.77546 135.45104 54 ft 30 kts 134°
2026-04-28 17:08 34.77407 135.45276 48 ft 27 kts 139°
2026-04-28 17:08 34.77322 135.45306 48 ft 1 kts 184°
2026-04-28 17:08 34.77310 135.45302 54 ft 3 kts 192°
2026-04-28 17:08 34.77285 135.45289 49 ft 5 kts 209°
2026-04-28 17:09 34.77262 135.45257 55 ft 5 kts 231°
2026-04-28 17:09 34.77241 135.45216 51 ft 6 kts 249°
2026-04-28 17:09 34.77312 135.45068 52 ft 43 kts 315°
2026-04-28 17:09 34.77735 135.44548 50 ft 129 kts 315°
2026-04-28 17:10 34.78524 135.43565 140 ft 185 kts 312°
2026-04-28 17:10 34.79416 135.42394 775 ft 194 kts 313°
2026-04-28 17:10 34.80039 135.40984 1787 ft 188 kts 281°
2026-04-28 17:10 34.79980 135.39406 2532 ft 200 kts 261°
2026-04-28 17:11 34.79602 135.37640 2891 ft 227 kts 249°
2026-04-28 17:11 34.78767 135.35924 3408 ft 243 kts 238°
2026-04-28 17:11 34.77788 135.34195 3963 ft 254 kts 236°
2026-04-28 17:11 34.76747 135.32411 4621 ft 260 kts 236°
2026-04-28 17:12 34.75709 135.30623 5388 ft 261 kts 237°
2026-04-28 17:12 34.74664 135.28804 5968 ft 267 kts 237°
2026-04-28 17:12 34.73597 135.26935 6669 ft 267 kts 237°
2026-04-28 17:12 34.72548 135.25083 7390 ft 268 kts 237°
2026-04-28 17:13 34.71478 135.23205 8101 ft 270 kts 237°
2026-04-28 17:13 34.70427 135.21345 8826 ft 269 kts 237°
2026-04-28 17:13 34.69359 135.19456 9535 ft 270 kts 237°
2026-04-28 17:13 34.68306 135.17581 10266 ft 269 kts 238°
2026-04-28 17:14 34.67370 135.15552 10657 ft 282 kts 245°
2026-04-28 17:14 34.66504 135.13328 10907 ft 298 kts 245°
2026-04-28 17:14 34.65604 135.11025 11296 ft 308 kts 245°
2026-04-28 17:14 34.64668 135.08662 12000 ft 307 kts 244°
2026-04-28 17:15 34.63752 135.06358 12736 ft 304 kts 244°
2026-04-28 17:15 34.62825 135.04019 13297 ft 307 kts 244°
2026-04-28 17:15 34.61895 135.01697 13909 ft 308 kts 244°
2026-04-28 17:15 34.60947 134.99385 14481 ft 309 kts 242°
2026-04-28 17:16 34.59852 134.97108 15056 ft 311 kts 240°
2026-04-28 17:16 34.58758 134.94867 15616 ft 312 kts 241°
2026-04-28 17:16 34.57648 134.92577 16164 ft 313 kts 241°
2026-04-28 17:16 34.56534 134.90283 16695 ft 315 kts 241°
2026-04-28 17:17 34.55429 134.88008 17205 ft 316 kts 241°
2026-04-28 17:17 34.54307 134.85699 17691 ft 317 kts 241°
2026-04-28 17:17 34.53084 134.83483 18160 ft 321 kts 236°
2026-04-28 17:17 34.51641 134.81384 18596 ft 324 kts 232°
2026-04-28 17:18 34.50175 134.79324 19027 ft 326 kts 233°
2026-04-28 17:18 34.48683 134.77206 19487 ft 328 kts 233°
2026-04-28 17:18 34.47211 134.75106 19905 ft 331 kts 233°
2026-04-28 17:18 34.45707 134.72962 20339 ft 333 kts 233°
2026-04-28 17:19 34.44220 134.70829 20780 ft 335 kts 233°
2026-04-28 17:19 34.42703 134.68645 21266 ft 337 kts 233°
2026-04-28 17:19 34.41195 134.66474 21663 ft 340 kts 234°
2026-04-28 17:19 34.39664 134.64263 22101 ft 342 kts 233°
2026-04-28 17:20 34.38138 134.62066 22539 ft 346 kts 234°
2026-04-28 17:20 34.37104 134.60582 22835 ft 347 kts 234°
2026-04-28 17:20 34.35003 134.57569 23458 ft 351 kts 234°
2026-04-28 17:20 34.33438 134.55326 23864 ft 354 kts 234°
2026-04-28 17:21 34.31831 134.53025 24261 ft 356 kts 234°
2026-04-28 17:21 34.30239 134.50745 24628 ft 359 kts 234°
2026-04-28 17:21 34.28617 134.48426 25115 ft 360 kts 234°
2026-04-28 17:22 34.25361 134.43773 25816 ft 366 kts 234°
2026-04-28 17:22 34.23731 134.41443 26192 ft 367 kts 234°
2026-04-28 17:22 34.22061 134.39060 26493 ft 370 kts 234°
2026-04-28 17:23 34.18724 134.34305 27201 ft 373 kts 234°
2026-04-28 17:23 34.17057 134.31928 27526 ft 376 kts 234°
2026-04-28 17:23 34.15351 134.29499 27867 ft 378 kts 234°
2026-04-28 17:23 34.13655 134.27088 28192 ft 380 kts 234°
2026-04-28 17:24 34.11930 134.24636 28538 ft 382 kts 234°
2026-04-28 17:24 34.10193 134.22171 28948 ft 384 kts 234°
2026-04-28 17:24 34.08475 134.19732 29338 ft 386 kts 234°
2026-04-28 17:24 34.06716 134.17237 29664 ft 389 kts 234°
2026-04-28 17:25 34.04973 134.14773 30064 ft 390 kts 234°
2026-04-28 17:25 34.01435 134.09759 30721 ft 396 kts 234°
2026-04-28 17:25 33.99636 134.07213 31084 ft 398 kts 234°
2026-04-28 17:26 33.97855 134.04691 31412 ft 400 kts 233°
2026-04-28 17:26 33.96033 134.02123 31740 ft 403 kts 233°
2026-04-28 17:26 33.94214 133.99559 32035 ft 406 kts 233°
2026-04-28 17:26 33.92360 133.96949 32286 ft 409 kts 233°
2026-04-28 17:27 33.90528 133.94363 32659 ft 409 kts 233°
2026-04-28 17:27 33.88656 133.91718 32949 ft 412 kts 233°
2026-04-28 17:27 33.86815 133.89117 33221 ft 413 kts 233°
2026-04-28 17:27 33.84933 133.86465 33354 ft 416 kts 232°
2026-04-28 17:28 33.83033 133.83808 33578 ft 416 kts 232°
2026-04-28 17:28 33.79593 133.78257 34002 ft 414 kts 238°
2026-04-28 17:28 33.77981 133.75408 34229 ft 413 kts 238°
2026-04-28 17:29 33.76345 133.72537 34453 ft 413 kts 238°
2026-04-28 17:29 33.74739 133.69721 34682 ft 412 kts 238°
2026-04-28 17:29 33.73109 133.66867 34928 ft 411 kts 238°
2026-04-28 17:30 33.69869 133.61204 35321 ft 411 kts 238°
2026-04-28 17:30 33.66632 133.55558 35704 ft 410 kts 238°
2026-04-28 17:30 33.65026 133.52767 35909 ft 410 kts 238°
2026-04-28 17:31 33.63398 133.49941 36113 ft 408 kts 238°
2026-04-28 17:31 33.60166 133.44327 36419 ft 410 kts 239°
2026-04-28 17:32 33.56935 133.38709 36887 ft 407 kts 238°
2026-04-28 17:32 33.55314 133.35904 37157 ft 405 kts 239°
2026-04-28 17:32 33.53725 133.33158 37404 ft 403 kts 239°
2026-04-28 17:32 33.52126 133.30396 37670 ft 400 kts 239°
2026-04-28 17:33 33.50549 133.27670 37837 ft 400 kts 239°
2026-04-28 17:33 33.48957 133.24916 37932 ft 401 kts 239°
2026-04-28 17:33 33.46836 133.21257 37946 ft 401 kts 239°
2026-04-28 17:34 33.42603 133.13964 37966 ft 401 kts 239°
2026-04-28 17:34 33.39421 133.08484 37964 ft 401 kts 239°
2026-04-28 17:35 33.36235 133.03012 37967 ft 402 kts 239°
2026-04-28 17:35 33.33039 132.97518 37970 ft 402 kts 239°
2026-04-28 17:36 33.29833 132.92025 37966 ft 403 kts 239°
2026-04-28 17:36 33.26622 132.86535 37959 ft 403 kts 239°
2026-04-28 17:37 33.23415 132.81060 37962 ft 404 kts 239°
2026-04-28 17:37 33.20193 132.75571 37973 ft 405 kts 239°
2026-04-28 17:38 33.16967 132.70073 37965 ft 405 kts 239°
2026-04-28 17:38 33.13717 132.64535 37985 ft 405 kts 239°
2026-04-28 17:39 33.10479 132.59038 37985 ft 405 kts 239°
2026-04-28 17:40 33.05621 132.50798 37990 ft 406 kts 239°
2026-04-28 17:40 33.02898 132.46190 37991 ft 407 kts 239°
2026-04-28 17:41 32.99455 132.40870 37989 ft 412 kts 232°
2026-04-28 17:41 32.95064 132.36394 37989 ft 422 kts 221°
2026-04-28 17:42 32.89868 132.32996 37980 ft 430 kts 213°
2026-04-28 17:42 32.84515 132.29819 37986 ft 430 kts 214°
2026-04-28 17:43 32.79129 132.26593 37982 ft 431 kts 214°
2026-04-28 17:43 32.73765 132.23385 37979 ft 432 kts 214°
2026-04-28 17:44 32.68386 132.20174 37986 ft 433 kts 213°
2026-04-28 17:44 32.63116 132.16767 37977 ft 431 kts 218°
2026-04-28 17:45 32.57991 132.13104 37976 ft 432 kts 218°
2026-04-28 17:45 32.52806 132.09424 37982 ft 433 kts 217°
2026-04-28 17:46 32.47663 132.05780 37983 ft 434 kts 218°
2026-04-28 17:46 32.42478 132.02106 37982 ft 434 kts 218°
2026-04-28 17:47 32.37286 131.98432 37978 ft 435 kts 218°
2026-04-28 17:47 32.32086 131.94760 37966 ft 436 kts 218°
2026-04-28 17:48 32.26853 131.91066 37959 ft 436 kts 218°
2026-04-28 17:48 32.21646 131.87399 37985 ft 437 kts 217°
2026-04-28 17:49 32.16431 131.83734 37985 ft 437 kts 217°
2026-04-28 17:49 32.11221 131.80075 37978 ft 436 kts 218°
2026-04-28 17:50 32.05996 131.76408 37982 ft 436 kts 217°
2026-04-28 17:50 32.00785 131.72749 37978 ft 437 kts 218°
2026-04-28 17:51 31.95558 131.69087 37969 ft 437 kts 217°
2026-04-28 17:51 31.90324 131.65441 37977 ft 438 kts 217°
2026-04-28 17:52 31.85088 131.61792 37967 ft 438 kts 217°
2026-04-28 17:52 31.77231 131.56316 37977 ft 438 kts 217°
2026-04-28 17:53 31.71988 131.52669 37977 ft 439 kts 217°
2026-04-28 17:53 31.66737 131.49026 37977 ft 439 kts 217°
2026-04-28 17:54 31.61484 131.45378 37966 ft 439 kts 217°
2026-04-28 17:54 31.56215 131.41726 37965 ft 440 kts 217°
2026-04-28 17:55 31.50944 131.38080 37975 ft 441 kts 217°
2026-04-28 17:55 31.45667 131.34436 37981 ft 440 kts 217°
2026-04-28 17:56 31.40389 131.30793 37964 ft 440 kts 217°
2026-04-28 17:56 31.35099 131.27152 37965 ft 442 kts 217°
2026-04-28 17:57 31.29802 131.23506 37985 ft 442 kts 217°
2026-04-28 17:57 31.24513 131.19872 37988 ft 443 kts 217°
2026-04-28 17:58 31.19171 131.16197 38000 ft 443 kts 217°
2026-04-28 17:58 31.13863 131.12558 37996 ft 443 kts 217°
2026-04-28 17:59 31.08566 131.08930 38005 ft 444 kts 217°
2026-04-28 17:59 31.03225 131.05286 38005 ft 444 kts 217°
2026-04-28 18:00 30.97894 131.01641 38009 ft 445 kts 217°
2026-04-28 18:00 30.92561 130.98004 38016 ft 445 kts 217°
2026-04-28 18:01 30.87194 130.94349 38014 ft 445 kts 217°
2026-04-28 18:01 30.81861 130.90723 38016 ft 446 kts 217°
2026-04-28 18:02 30.76516 130.87086 38016 ft 446 kts 217°
2026-04-28 18:02 30.71156 130.83454 38017 ft 447 kts 217°
2026-04-28 18:03 30.65791 130.79816 38013 ft 447 kts 217°
2026-04-28 18:03 30.60380 130.76162 38015 ft 447 kts 217°
2026-04-28 18:04 30.55004 130.72530 38008 ft 448 kts 217°
2026-04-28 18:04 30.49620 130.68904 38020 ft 448 kts 217°
2026-04-28 18:05 30.45117 130.65868 38016 ft 449 kts 216°
2026-04-28 18:05 30.38846 130.61640 38015 ft 449 kts 217°
2026-04-28 18:06 30.33431 130.58003 38018 ft 450 kts 216°
2026-04-28 18:06 30.28032 130.54389 38014 ft 450 kts 216°
2026-04-28 18:07 30.22613 130.50755 38025 ft 451 kts 216°
2026-04-28 18:07 30.17169 130.47118 38034 ft 452 kts 216°
2026-04-28 18:08 30.11722 130.43486 38029 ft 452 kts 216°
2026-04-28 18:08 30.06241 130.39842 38023 ft 452 kts 216°
2026-04-28 18:09 30.00800 130.36214 38026 ft 452 kts 216°
2026-04-28 18:09 29.95377 130.32608 38025 ft 453 kts 216°
2026-04-28 18:10 29.89914 130.28977 38029 ft 453 kts 216°
2026-04-28 18:10 29.84407 130.25326 38036 ft 454 kts 216°
2026-04-28 18:11 29.78943 130.21707 38029 ft 454 kts 216°
2026-04-28 18:11 29.73477 130.18092 38037 ft 454 kts 216°
2026-04-28 18:12 29.68012 130.14480 38041 ft 454 kts 216°
2026-04-28 18:12 29.62527 130.10861 38041 ft 454 kts 216°
2026-04-28 18:13 29.57063 130.07258 38039 ft 454 kts 216°
2026-04-28 18:13 29.51581 130.03659 38038 ft 454 kts 216°
2026-04-28 18:14 29.46085 130.00047 38039 ft 454 kts 216°
2026-04-28 18:14 29.40621 129.96461 38029 ft 454 kts 216°
2026-04-28 18:15 29.35128 129.92862 38016 ft 455 kts 216°
2026-04-28 18:15 29.29617 129.89259 38026 ft 455 kts 216°
2026-04-28 18:16 29.24117 129.85663 38031 ft 455 kts 216°
2026-04-28 18:16 29.18621 129.82074 38029 ft 455 kts 216°
2026-04-28 18:17 29.13125 129.78496 38030 ft 455 kts 216°
2026-04-28 18:17 29.07631 129.74916 38024 ft 455 kts 215°
2026-04-28 18:18 29.02159 129.71356 38033 ft 455 kts 215°
2026-04-28 18:18 28.97579 129.68379 38024 ft 455 kts 215°
2026-04-28 18:19 28.91158 129.64214 38026 ft 455 kts 215°
2026-04-28 18:19 28.85647 129.60643 38024 ft 455 kts 215°
2026-04-28 18:20 28.80116 129.57064 38024 ft 456 kts 215°
2026-04-28 18:20 28.74605 129.53501 38026 ft 456 kts 215°
2026-04-28 18:21 28.69096 129.49947 38025 ft 456 kts 215°
2026-04-28 18:21 28.63547 129.46370 38026 ft 456 kts 215°
2026-04-28 18:22 28.58021 129.42811 38023 ft 457 kts 215°
2026-04-28 18:22 28.52493 129.39255 38033 ft 457 kts 215°
2026-04-28 18:23 28.46964 129.35703 38030 ft 457 kts 214°
2026-04-28 18:23 28.41434 129.32155 38026 ft 457 kts 214°
2026-04-28 18:24 28.37745 129.29792 38031 ft 457 kts 214°
2026-04-28 18:24 28.30361 129.25067 38035 ft 457 kts 214°
2026-04-28 18:25 28.24830 129.21533 38036 ft 457 kts 214°
2026-04-28 18:26 28.16528 129.16237 38030 ft 457 kts 214°
2026-04-28 18:26 28.10984 129.12702 38031 ft 457 kts 214°
2026-04-28 18:27 28.06358 129.09754 38040 ft 457 kts 214°
2026-04-28 18:27 28.00835 129.06239 38039 ft 456 kts 214°
2026-04-28 18:28 27.95300 129.02724 38025 ft 457 kts 214°
2026-04-28 18:28 27.89720 128.99183 38032 ft 458 kts 214°
2026-04-28 18:29 27.84166 128.95665 38042 ft 458 kts 214°
2026-04-28 18:29 27.78646 128.92174 38045 ft 458 kts 214°
2026-04-28 18:30 27.73078 128.88656 38049 ft 459 kts 214°
2026-04-28 18:30 27.67485 128.85126 38048 ft 458 kts 214°
2026-04-28 18:31 27.61926 128.81616 38047 ft 458 kts 214°
2026-04-28 18:31 27.56382 128.78127 37938 ft 455 kts 214°
2026-04-28 18:31 27.53604 128.76382 37514 ft 453 kts 214°
2026-04-28 18:32 27.50865 128.74659 36863 ft 453 kts 214°
2026-04-28 18:32 27.48125 128.72937 36166 ft 454 kts 214°
2026-04-28 18:32 27.45431 128.71036 35199 ft 453 kts 222°
2026-04-28 18:32 27.43111 128.68695 34191 ft 452 kts 231°
2026-04-28 18:33 27.41153 128.65904 33096 ft 453 kts 240°
2026-04-28 18:33 27.39567 128.62875 32027 ft 455 kts 243°
2026-04-28 18:33 27.37964 128.59759 31009 ft 457 kts 242°
2026-04-28 18:33 27.36377 128.56716 30287 ft 453 kts 241°
2026-04-28 18:34 27.34779 128.53678 29690 ft 447 kts 241°
2026-04-28 18:34 27.33194 128.50672 29023 ft 442 kts 240°
2026-04-28 18:34 27.31641 128.47735 28374 ft 437 kts 240°
2026-04-28 18:34 27.30093 128.44808 27729 ft 431 kts 240°
2026-04-28 18:35 27.28576 128.41937 27071 ft 426 kts 240°
2026-04-28 18:35 27.27084 128.39111 26398 ft 422 kts 240°
2026-04-28 18:35 27.25586 128.36268 25774 ft 417 kts 240°
2026-04-28 18:35 27.24112 128.33478 25110 ft 412 kts 240°
2026-04-28 18:36 27.22672 128.30755 24450 ft 407 kts 240°
2026-04-28 18:36 27.21229 128.28035 23821 ft 401 kts 240°
2026-04-28 18:36 27.19803 128.25346 23110 ft 397 kts 240°
2026-04-28 18:36 27.18407 128.22714 22402 ft 394 kts 240°
2026-04-28 18:37 27.17017 128.20096 21679 ft 390 kts 240°
2026-04-28 18:37 27.15626 128.17477 20973 ft 385 kts 240°
2026-04-28 18:37 27.14269 128.14925 20253 ft 381 kts 239°
2026-04-28 18:37 27.12906 128.12362 19494 ft 378 kts 240°
2026-04-28 18:38 27.11578 128.09866 18737 ft 374 kts 239°
2026-04-28 18:38 27.10244 128.07363 17990 ft 369 kts 239°
2026-04-28 18:38 27.08940 128.04915 17252 ft 366 kts 239°
2026-04-28 18:38 27.07635 128.02467 16447 ft 362 kts 239°
2026-04-28 18:39 27.06352 128.00058 15633 ft 361 kts 239°
2026-04-28 18:39 27.05063 127.97641 14896 ft 357 kts 239°
2026-04-28 18:39 27.03787 127.95249 14140 ft 354 kts 239°
2026-04-28 18:39 27.02533 127.92918 13373 ft 351 kts 238°
2026-04-28 18:40 27.00991 127.90785 12510 ft 350 kts 225°
2026-04-28 18:40 26.99099 127.89110 11714 ft 348 kts 213°
2026-04-28 18:40 26.96948 127.87857 11142 ft 341 kts 207°
2026-04-28 18:40 26.94867 127.86713 10919 ft 321 kts 207°
2026-04-28 18:41 26.92935 127.85629 10756 ft 302 kts 208°
2026-04-28 18:41 26.91122 127.84603 10497 ft 287 kts 208°
2026-04-28 18:41 26.89342 127.83587 9930 ft 283 kts 208°
2026-04-28 18:41 26.87608 127.82595 9328 ft 282 kts 208°
2026-04-28 18:42 26.85858 127.81595 8711 ft 280 kts 208°
2026-04-28 18:42 26.84143 127.80621 8124 ft 277 kts 208°
2026-04-28 18:42 26.82422 127.79645 7543 ft 274 kts 208°
2026-04-28 18:42 26.80739 127.78692 6935 ft 272 kts 208°
2026-04-28 18:43 26.79047 127.77732 6301 ft 270 kts 208°
2026-04-28 18:43 26.77382 127.76787 5715 ft 266 kts 208°
2026-04-28 18:43 26.75747 127.75857 5081 ft 264 kts 208°
2026-04-28 18:43 26.74099 127.74926 4407 ft 264 kts 207°
2026-04-28 18:44 26.72492 127.74008 3762 ft 262 kts 207°
2026-04-28 18:44 26.69279 127.72174 3388 ft 263 kts 206°
2026-04-28 18:44 26.67640 127.71244 3278 ft 263 kts 206°
2026-04-28 18:45 26.66027 127.70328 3174 ft 263 kts 206°
2026-04-28 18:45 26.64390 127.69404 3085 ft 261 kts 206°
2026-04-28 18:45 26.62763 127.68487 3054 ft 261 kts 206°
2026-04-28 18:45 26.61149 127.67574 3047 ft 262 kts 206°
2026-04-28 18:46 26.59519 127.66642 3038 ft 262 kts 206°
2026-04-28 18:46 26.57903 127.65728 3043 ft 261 kts 206°
2026-04-28 18:46 26.56272 127.64812 3047 ft 261 kts 206°
2026-04-28 18:46 26.54658 127.63904 3040 ft 262 kts 206°
2026-04-28 18:47 26.53024 127.62976 3039 ft 262 kts 206°
2026-04-28 18:47 26.51406 127.62060 3045 ft 261 kts 206°
2026-04-28 18:47 26.49727 127.61346 3042 ft 251 kts 191°
2026-04-28 18:47 26.48086 127.61294 3034 ft 227 kts 174°
2026-04-28 18:48 26.46566 127.61466 3037 ft 213 kts 173°
2026-04-28 18:48 26.45085 127.61610 3038 ft 215 kts 175°
2026-04-28 18:48 26.43602 127.61704 3032 ft 214 kts 176°
2026-04-28 18:48 26.42106 127.61801 3030 ft 215 kts 175°
2026-04-28 18:49 26.40604 127.61899 3030 ft 215 kts 176°
2026-04-28 18:49 26.39633 127.61962 3037 ft 214 kts 175°
2026-04-28 18:49 26.37664 127.62085 3037 ft 202 kts 176°
2026-04-28 18:49 26.36323 127.62166 3023 ft 187 kts 175°
2026-04-28 18:50 26.35039 127.62257 2897 ft 184 kts 176°
2026-04-28 18:50 26.33766 127.62332 2671 ft 184 kts 176°
2026-04-28 18:50 26.32492 127.62419 2444 ft 181 kts 175°
2026-04-28 18:50 26.31247 127.62498 2193 ft 180 kts 175°
2026-04-28 18:51 26.29996 127.62576 1936 ft 178 kts 175°
2026-04-28 18:51 26.28785 127.62655 1698 ft 171 kts 175°
2026-04-28 18:51 26.27635 127.62729 1463 ft 159 kts 175°
2026-04-28 18:51 26.26562 127.62793 1269 ft 152 kts 176°
2026-04-28 18:52 26.25541 127.62861 1064 ft 141 kts 176°
2026-04-28 18:52 26.24541 127.62925 884 ft 142 kts 173°
2026-04-28 18:52 26.23568 127.63036 600 ft 142 kts 171°
2026-04-28 18:52 26.22607 127.63086 331 ft 143 kts 171°
2026-04-28 18:53 26.21616 127.63145 243 ft 143 kts 171°
2026-04-28 18:53 26.20639 127.63210 121 ft 141 kts 171°
2026-04-28 18:53 26.19679 127.63266 39 ft 129 kts 174°
2026-04-28 18:53 26.19061 127.63317 33 ft 51 kts 178°
2026-04-28 18:54 26.18756 127.63363 33 ft 40 kts 158°
2026-04-28 18:54 26.18673 127.63412 34 ft 7 kts 150°
2026-04-28 18:54 26.18655 127.63457 35 ft 7 kts 94°
2026-04-28 18:54 26.18674 127.63489 35 ft 5 kts 24°
2026-04-28 18:55 26.18717 127.63504 34 ft 9 kts 10°
2026-04-28 18:55 26.18767 127.63507 34 ft 13 kts
2026-04-28 18:55 26.18913 127.63508 34 ft 18 kts
2026-04-28 18:55 26.19054 127.63503 34 ft 22 kts 356°
2026-04-28 18:56 26.19216 127.63493 34 ft 24 kts 357°
2026-04-28 18:56 26.19383 127.63485 35 ft 25 kts 357°
2026-04-28 18:56 26.19557 127.63474 35 ft 25 kts 356°
2026-04-28 18:56 26.19736 127.63464 35 ft 26 kts 357°
2026-04-28 18:57 26.19919 127.63454 35 ft 27 kts 357°
2026-04-28 18:57 26.20104 127.63443 34 ft 27 kts 357°
2026-04-28 18:57 26.20218 127.63546 34 ft 20 kts 91°
2026-04-28 18:57 26.20219 127.63706 34 ft 21 kts 87°
2026-04-28 18:58 26.20228 127.63874 34 ft 22 kts 86°
2026-04-28 18:58 26.20235 127.64049 34 ft 23 kts 87°
2026-04-28 18:58 26.20245 127.64232 34 ft 24 kts 81°
2026-04-28 18:58 26.20325 127.64390 33 ft 24 kts 67°
2026-04-28 18:59 26.20347 127.64574 34 ft 24 kts 84°
2026-04-28 18:59 26.20436 127.64723 34 ft 24 kts 33°
2026-04-28 18:59 26.20494 127.64815 34 ft 0 kts 84°
2026-04-28 18:59 26.20494 127.64816 34 ft 0 kts 84°